START_TIME,STEP,MOV.,A46,t_acc.,A13,t_acc.,M47,t_acc.,A17,t_acc.,A28,t_acc.,M38,t_acc.
1979-03-02 12:00:14.970 ,4,0,,0,12.,4.8,0.,4.8,,0,0.,4.8,0.,4.8
1979-03-02 12:00:19.770 ,4,0,,0,21.,4.8,3.,4.8,,0,0.,4.8,0.,4.8
1979-03-02 12:00:24.570 ,4,0,,0,13.,4.8,0.,4.8,,0,0.,4.8,0.,4.8
1979-03-02 12:00:29.370 ,4,0,,0,0.,4.8,0.,4.8,,0,0.,4.8,0.,4.8
1979-03-02 12:00:34.170 ,4,0,,0,0.,4.8,0.,4.8,,0,0.,4.8,0.,4.8
1979-03-02 12:00:38.970 ,3,0,,0,0.,4.8,0.,4.8,,0,0.,4.8,0.,4.8
1979-03-02 12:00:43.770 ,3,0,,0,0.,4.8,0.,4.8,,0,0.,4.8,0.,4.8
1979-03-02 12:00:48.570 ,3,0,,0,2.,4.8,0.,4.8,,0,0.,4.8,0.,4.8
1979-03-02 12:00:53.370 ,3,0,,0,4.,4.8,0.,4.8,,0,0.,4.8,0.,4.8
1979-03-02 12:00:58.170 ,3,0,,0,11.,4.8,1.,4.8,,0,0.,4.8,0.,4.8
1979-03-02 12:01:02.970 ,2,0,,0,3.,4.8,0.,4.8,,0,0.,4.8,0.,4.8
1979-03-02 12:01:07.770 ,2,0,,0,1.,4.8,0.,4.8,,0,0.,4.8,0.,4.8
1979-03-02 12:01:12.570 ,2,0,,0,10.,4.8,1.,4.8,,0,0.,4.8,0.,4.8
1979-03-02 12:01:17.370 ,2,0,,0,0.,4.8,0.,4.8,,0,0.,4.8,1.,4.8
1979-03-02 12:01:22.170 ,2,0,,0,0.,4.8,0.,4.8,,0,0.,4.8,0.,4.8
1979-03-02 12:01:26.970 ,1,0,,0,0.,4.8,0.,4.8,,0,0.,4.8,0.,4.8
1979-03-02 12:01:31.770 ,1,0,,0,0.,4.8,0.,4.8,,0,0.,4.8,0.,4.8
1979-03-02 12:01:36.570 ,1,0,,0,2.,4.8,1.,4.8,,0,0.,4.8,1.,4.8
1979-03-02 12:01:41.370 ,1,0,,0,12.,4.8,0.,4.8,,0,0.,4.8,0.,4.8
1979-03-02 12:01:46.170 ,1,0,,0,15.,4.8,1.,4.8,,0,0.,4.8,0.,4.8
1979-03-02 12:01:50.970 ,0,0,,0,6.,4.8,1.,4.8,,0,0.,4.8,0.,4.8
1979-03-02 12:01:55.770 ,0,0,,0,18.,4.8,0.,4.8,,0,0.,4.8,0.,4.8
1979-03-02 12:02:00.570 ,0,0,,0,14.,4.8,0.,4.8,,0,0.,4.8,2.,4.8
1979-03-02 12:02:05.370 ,0,0,,0,0.,4.8,0.,4.8,,0,0.,4.8,0.,4.8
1979-03-02 12:02:10.170 ,0,0,,0,0.,4.8,0.,4.8,,0,0.,4.8,2.,4.8
1979-03-02 12:02:14.970 ,0,0,,0,0.,4.8,0.,4.8,,0,0.,4.8,0.,4.8
1979-03-02 12:02:19.770 ,0,0,,0,1.,4.8,0.,4.8,,0,0.,4.8,1.,4.8
1979-03-02 12:02:24.570 ,0,0,,0,2.,4.8,0.,4.8,,0,0.,4.8,1.,4.8
1979-03-02 12:02:29.370 ,0,0,,0,25.,4.8,0.,4.8,,0,0.,4.8,0.,4.8
1979-03-02 12:02:34.170 ,0,0,,0,16.,4.8,2.,4.8,,0,0.,4.8,0.,4.8
1979-03-02 12:02:38.970 ,1,0,,0,19.,4.8,0.,4.8,,0,0.,4.8,0.,4.8
1979-03-02 12:02:43.770 ,1,0,,0,14.,4.8,2.,4.8,,0,0.,4.8,0.,4.8
1979-03-02 12:02:48.570 ,1,0,,0,3.,4.8,0.,4.8,,0,0.,4.8,1.,4.8
1979-03-02 12:02:53.370 ,1,0,,0,0.,4.8,0.,4.8,,0,0.,4.8,0.,4.8
1979-03-02 12:02:58.170 ,1,0,,0,0.,4.8,0.,4.8,,0,0.,4.8,1.,4.8
1979-03-02 12:03:02.970 ,2,0,,0,0.,4.8,0.,4.8,,0,0.,4.8,0.,4.8
1979-03-02 12:03:07.770 ,2,0,,0,0.,4.8,0.,4.8,,0,0.,4.8,0.,4.8
1979-03-02 12:03:12.570 ,2,0,,0,2.,4.8,0.,4.8,,0,0.,4.8,1.,4.8
1979-03-02 12:03:17.370 ,2,0,,0,8.,4.8,0.,4.8,,0,0.,4.8,0.,4.8
1979-03-02 12:03:22.170 ,2,0,,0,6.,4.8,0.,4.8,,0,0.,4.8,0.,4.8
1979-03-02 12:03:26.970 ,3,0,,0,10.,4.8,1.,4.8,,0,0.,4.8,0.,4.8
1979-03-02 12:03:31.770 ,3,0,,0,5.,4.8,1.,4.8,,0,0.,4.8,1.,4.8
1979-03-02 12:03:36.570 ,3,0,,0,7.,4.8,0.,4.8,,0,0.,4.8,0.,4.8
1979-03-02 12:03:41.370 ,3,0,,0,0.,4.8,0.,4.8,,0,0.,4.8,0.,4.8
1979-03-02 12:03:46.170 ,3,0,,0,0.,4.8,0.,4.8,,0,0.,4.8,0.,4.8
1979-03-02 12:03:50.970 ,4,0,,0,0.,4.8,0.,4.8,,0,0.,4.8,0.,4.8
1979-03-02 12:03:55.770 ,4,0,,0,1.,4.8,0.,4.8,,0,0.,4.8,0.,4.8
1979-03-02 12:04:00.570 ,4,0,,0,2.,4.8,0.,4.8,,0,0.,4.8,0.,4.8
1979-03-02 12:04:05.370 ,4,0,,0,8.,4.8,0.,4.8,,0,0.,4.8,0.,4.8
1979-03-02 12:04:10.170 ,4,0,,0,8.,4.8,0.,4.8,,0,0.,4.8,0.,4.8
1979-03-02 12:04:14.970 ,5,0,,0,15.,4.8,0.,4.8,,0,0.,4.8,0.,4.8
1979-03-02 12:04:19.770 ,5,0,,0,12.,4.8,0.,4.8,,0,0.,4.8,0.,4.8
1979-03-02 12:04:24.570 ,5,0,,0,17.,4.8,0.,4.8,,0,0.,4.8,0.,4.8
1979-03-02 12:04:29.370 ,5,0,,0,0.,4.8,0.,4.8,,0,0.,4.8,0.,4.8
1979-03-02 12:04:34.170 ,5,0,,0,0.,4.8,0.,4.8,,0,0.,4.8,0.,4.8
1979-03-02 12:04:38.970 ,6,0,,0,1.,4.8,0.,4.8,,0,0.,4.8,1.,4.8
1979-03-02 12:04:43.770 ,6,0,,0,1.,4.8,0.,4.8,,0,0.,4.8,0.,4.8
1979-03-02 12:04:48.570 ,6,0,,0,2.,4.8,0.,4.8,,0,0.,4.8,0.,4.8
1979-03-02 12:04:53.370 ,6,0,,0,25.,4.8,1.,4.8,,0,0.,4.8,0.,4.8
1979-03-02 12:04:58.170 ,6,0,,0,22.,4.8,0.,4.8,,0,0.,4.8,1.,4.8
1979-03-02 12:05:02.970 ,7,0,,0,23.,4.8,1.,4.8,,0,0.,4.8,0.,4.8
1979-03-02 12:05:07.770 ,7,0,,0,19.,4.8,0.,4.8,,0,0.,4.8,0.,4.8
1979-03-02 12:05:12.570 ,7,0,,0,6.,4.8,0.,4.8,,0,0.,4.8,0.,4.8
1979-03-02 12:05:17.370 ,7,0,,0,0.,4.8,0.,4.8,,0,0.,4.8,0.,4.8
1979-03-02 12:05:22.170 ,7,0,,0,0.,4.8,0.,4.8,,0,0.,4.8,0.,4.8
1979-03-02 12:06:14.970 ,0,0,,0,1.,4.8,0.,4.8,,0,0.,4.8,0.,4.8
1979-03-02 12:06:19.770 ,0,0,,0,0.,4.8,0.,4.8,,0,0.,4.8,1.,4.8
1979-03-02 12:06:24.570 ,0,0,,0,4.,4.8,0.,4.8,,0,0.,4.8,0.,4.8
1979-03-02 12:06:29.370 ,0,0,,0,16.,4.8,2.,4.8,,0,0.,4.8,2.,4.8
1979-03-02 12:06:34.170 ,0,0,,0,17.,4.8,2.,4.8,,0,0.,4.8,0.,4.8
1979-03-02 12:06:38.970 ,4,0,,0,15.,4.8,1.,4.8,,0,0.,4.8,0.,4.8
1979-03-02 12:06:43.770 ,4,0,,0,21.,4.8,2.,4.8,,0,0.,4.8,0.,4.8
1979-03-02 12:06:48.570 ,4,0,,0,9.,4.8,0.,4.8,,0,0.,4.8,0.,4.8
1979-03-02 12:06:53.370 ,4,0,,0,0.,4.8,0.,4.8,,0,0.,4.8,0.,4.8
1979-03-02 12:06:58.170 ,4,0,,0,0.,4.8,0.,4.8,,0,0.,4.8,0.,4.8
1979-03-02 12:07:02.970 ,3,0,,0,0.,4.8,0.,4.8,,0,0.,4.8,0.,4.8
1979-03-02 12:07:07.770 ,3,0,,0,0.,4.8,0.,4.8,,0,0.,4.8,0.,4.8
1979-03-02 12:07:12.570 ,3,0,,0,2.,4.8,0.,4.8,,0,0.,4.8,0.,4.8
1979-03-02 12:07:17.370 ,3,0,,0,5.,4.8,1.,4.8,,0,0.,4.8,0.,4.8
1979-03-02 12:07:22.170 ,3,0,,0,9.,4.8,0.,4.8,,0,0.,4.8,0.,4.8
1979-03-02 12:07:26.970 ,2,0,,0,8.,4.8,0.,4.8,,0,0.,4.8,0.,4.8
1979-03-02 12:07:31.770 ,2,0,,0,6.,4.8,0.,4.8,,0,0.,4.8,0.,4.8
1979-03-02 12:07:36.570 ,2,0,,0,10.,4.8,3.,4.8,,0,0.,4.8,1.,4.8
1979-03-02 12:07:41.370 ,2,0,,0,0.,4.8,0.,4.8,,0,0.,4.8,0.,4.8
1979-03-02 12:07:46.170 ,2,0,,0,0.,4.8,0.,4.8,,0,0.,4.8,0.,4.8
1979-03-02 12:07:50.970 ,1,0,,0,0.,4.8,0.,4.8,,0,0.,4.8,0.,4.8
1979-03-02 12:07:55.770 ,1,0,,0,0.,4.8,0.,4.8,,0,0.,4.8,0.,4.8
1979-03-02 12:08:00.570 ,1,0,,0,1.,4.8,0.,4.8,,0,0.,4.8,1.,4.8
1979-03-02 12:08:05.370 ,1,0,,0,10.,4.8,1.,4.8,,0,0.,4.8,0.,4.8
1979-03-02 12:08:10.170 ,1,0,,0,7.,4.8,0.,4.8,,0,0.,4.8,0.,4.8
1979-03-02 12:08:14.970 ,0,0,,0,10.,4.8,0.,4.8,,0,0.,4.8,0.,4.8
1979-03-02 12:08:19.770 ,0,0,,0,12.,4.8,0.,4.8,,0,0.,4.8,0.,4.8
1979-03-02 12:08:24.570 ,0,0,,0,15.,4.8,0.,4.8,,0,0.,4.8,0.,4.8
1979-03-02 12:08:29.370 ,0,0,,0,0.,4.8,0.,4.8,,0,0.,4.8,1.,4.8
1979-03-02 12:08:34.170 ,0,0,,0,0.,4.8,0.,4.8,,0,0.,4.8,1.,4.8
1979-03-02 12:08:38.970 ,0,0,,0,0.,4.8,0.,4.8,,0,0.,4.8,0.,4.8
1979-03-02 12:08:43.770 ,0,0,,0,0.,4.8,0.,4.8,,0,0.,4.8,0.,4.8
1979-03-02 12:08:48.570 ,0,0,,0,1.,4.8,0.,4.8,,0,0.,4.8,0.,4.8
1979-03-02 12:08:53.370 ,0,0,,0,12.,4.8,1.,4.8,,0,0.,4.8,1.,4.8
1979-03-02 12:08:58.170 ,0,0,,0,12.,4.8,1.,4.8,,0,0.,4.8,2.,4.8
1979-03-02 12:09:02.970 ,1,0,,0,22.,4.8,1.,4.8,,0,0.,4.8,0.,4.8
1979-03-02 12:09:07.770 ,1,0,,0,18.,4.8,1.,4.8,,0,0.,4.8,0.,4.8
1979-03-02 12:09:12.570 ,1,0,,0,7.,4.8,0.,4.8,,0,0.,4.8,0.,4.8
1979-03-02 12:09:17.370 ,1,0,,0,0.,4.8,0.,4.8,,0,0.,4.8,0.,4.8
1979-03-02 12:09:22.170 ,1,0,,0,0.,4.8,0.,4.8,,0,0.,4.8,0.,4.8
1979-03-02 12:09:26.970 ,2,0,,0,0.,4.8,0.,4.8,,0,0.,4.8,0.,4.8
1979-03-02 12:09:31.770 ,2,0,,0,0.,4.8,0.,4.8,,0,0.,4.8,0.,4.8
1979-03-02 12:09:36.570 ,2,0,,0,1.,4.8,0.,4.8,,0,0.,4.8,0.,4.8
1979-03-02 12:09:41.370 ,2,0,,0,11.,4.8,0.,4.8,,0,0.,4.8,0.,4.8
1979-03-02 12:09:46.170 ,2,0,,0,6.,4.8,0.,4.8,,0,0.,4.8,0.,4.8
1979-03-02 12:09:50.970 ,3,0,,0,8.,4.8,1.,4.8,,0,0.,4.8,0.,4.8
1979-03-02 12:09:55.770 ,3,0,,0,10.,4.8,0.,4.8,,0,0.,4.8,0.,4.8
1979-03-02 12:10:00.570 ,3,0,,0,8.,4.8,0.,4.8,,0,0.,4.8,0.,4.8
1979-03-02 12:10:05.370 ,3,0,,0,0.,4.8,0.,4.8,,0,0.,4.8,1.,4.8
1979-03-02 12:10:10.170 ,3,0,,0,1.,4.8,0.,4.8,,0,0.,4.8,0.,4.8
1979-03-02 12:10:14.970 ,4,0,,0,0.,4.8,0.,4.8,,0,0.,4.8,0.,4.8
1979-03-02 12:10:19.770 ,4,0,,0,0.,4.8,0.,4.8,,0,0.,4.8,0.,4.8
1979-03-02 12:10:24.570 ,4,0,,0,0.,4.8,0.,4.8,,0,0.,4.8,0.,4.8
1979-03-02 12:10:29.370 ,4,0,,0,10.,4.8,1.,4.8,,0,0.,4.8,1.,4.8
1979-03-02 12:10:34.170 ,4,0,,0,16.,4.8,0.,4.8,,0,0.,4.8,0.,4.8
1979-03-02 12:10:38.970 ,5,0,,0,15.,4.8,1.,4.8,,0,0.,4.8,0.,4.8
1979-03-02 12:10:43.770 ,5,0,,0,22.,4.8,1.,4.8,,0,0.,4.8,0.,4.8
1979-03-02 12:10:48.570 ,5,0,,0,12.,4.8,0.,4.8,,0,0.,4.8,0.,4.8
1979-03-02 12:10:53.370 ,5,0,,0,0.,4.8,0.,4.8,,0,0.,4.8,2.,4.8
1979-03-02 12:10:58.170 ,5,0,,0,0.,4.8,0.,4.8,,0,0.,4.8,0.,4.8
1979-03-02 12:11:02.970 ,6,0,,0,0.,4.8,0.,4.8,,0,0.,4.8,1.,4.8
1979-03-02 12:11:07.770 ,6,0,,0,0.,4.8,0.,4.8,,0,0.,4.8,0.,4.8
1979-03-02 12:11:12.570 ,6,0,,0,7.,4.8,0.,4.8,,0,0.,4.8,0.,4.8
1979-03-02 12:11:17.370 ,6,0,,0,26.,4.8,0.,4.8,,0,0.,4.8,0.,4.8
1979-03-02 12:11:22.170 ,6,0,,0,31.,4.8,0.,4.8,,0,0.,4.8,0.,4.8
1979-03-02 12:11:26.970 ,7,0,,0,18.,4.8,1.,4.8,,0,0.,4.8,0.,4.8
1979-03-02 12:11:31.770 ,7,0,,0,27.,4.8,1.,4.8,,0,0.,4.8,0.,4.8
1979-03-02 12:11:36.570 ,7,0,,0,5.,4.8,0.,4.8,,0,0.,4.8,0.,4.8
1979-03-02 12:11:41.370 ,7,0,,0,0.,4.8,0.,4.8,,0,0.,4.8,0.,4.8
1979-03-02 12:11:46.170 ,7,0,,0,0.,4.8,0.,4.8,,0,0.,4.8,0.,4.8
1979-03-02 12:11:50.970 ,7,0,,0,0.,4.8,0.,4.8,,0,0.,4.8,0.,4.8
1979-03-02 12:11:55.770 ,7,0,,0,0.,4.8,0.,4.8,,0,0.,4.8,0.,4.8
1979-03-02 12:12:00.570 ,7,0,,0,2.,4.8,0.,4.8,,0,0.,4.8,0.,4.8
1979-03-02 12:12:05.370 ,7,0,,0,11.,4.8,0.,4.8,,0,0.,4.8,0.,4.8
1979-03-02 12:12:10.170 ,7,0,,0,11.,4.8,0.,4.8,,0,0.,4.8,0.,4.8
1979-03-02 12:12:14.970 ,6,0,,0,13.,4.8,0.,4.8,,0,0.,4.8,0.,4.8
1979-03-02 12:12:19.770 ,6,0,,0,18.,4.8,0.,4.8,,0,0.,4.8,0.,4.8
1979-03-02 12:12:24.570 ,6,0,,0,15.,4.8,1.,4.8,,0,0.,4.8,0.,4.8
1979-03-02 12:12:29.370 ,6,0,,0,0.,4.8,0.,4.8,,0,0.,4.8,0.,4.8
1979-03-02 12:12:34.170 ,6,0,,0,0.,4.8,0.,4.8,,0,0.,4.8,0.,4.8
1979-03-02 12:12:38.970 ,5,0,,0,0.,4.8,0.,4.8,,0,0.,4.8,0.,4.8
1979-03-02 12:12:43.770 ,5,0,,0,1.,4.8,0.,4.8,,0,0.,4.8,0.,4.8
1979-03-02 12:12:48.570 ,5,0,,0,4.,4.8,0.,4.8,,0,0.,4.8,1.,4.8
1979-03-02 12:12:53.370 ,5,0,,0,17.,4.8,1.,4.8,,0,0.,4.8,0.,4.8
1979-03-02 12:12:58.170 ,5,0,,0,14.,4.8,2.,4.8,,0,0.,4.8,0.,4.8
1979-03-02 12:13:02.970 ,4,0,,0,18.,4.8,0.,4.8,,0,0.,4.8,0.,4.8
1979-03-02 12:13:07.770 ,4,0,,0,16.,4.8,0.,4.8,,0,0.,4.8,0.,4.8
1979-03-02 12:13:12.570 ,4,0,,0,7.,4.8,0.,4.8,,0,0.,4.8,0.,4.8
1979-03-02 12:13:17.370 ,4,0,,0,0.,4.8,0.,4.8,,0,0.,4.8,0.,4.8
1979-03-02 12:13:22.170 ,4,0,,0,0.,4.8,0.,4.8,,0,0.,4.8,0.,4.8
1979-03-02 12:13:26.970 ,3,0,,0,0.,4.8,0.,4.8,,0,0.,4.8,0.,4.8
1979-03-02 12:13:31.770 ,3,0,,0,0.,4.8,0.,4.8,,0,0.,4.8,0.,4.8
1979-03-02 12:13:36.570 ,3,0,,0,0.,4.8,0.,4.8,,0,0.,4.8,0.,4.8
1979-03-02 12:13:41.370 ,3,0,,0,4.,4.8,1.,4.8,,0,0.,4.8,1.,4.8
1979-03-02 12:13:46.170 ,3,0,,0,5.,4.8,0.,4.8,,0,0.,4.8,0.,4.8
1979-03-02 12:13:50.970 ,2,0,,0,10.,4.8,0.,4.8,,0,0.,4.8,0.,4.8
1979-03-02 12:13:55.770 ,2,0,,0,5.,4.8,1.,4.8,,0,0.,4.8,0.,4.8
1979-03-02 12:14:00.570 ,2,0,,0,3.,4.8,0.,4.8,,0,0.,4.8,0.,4.8
1979-03-02 12:14:05.370 ,2,0,,0,0.,4.8,0.,4.8,,0,0.,4.8,0.,4.8
1979-03-02 12:14:10.170 ,2,0,,0,0.,4.8,0.,4.8,,0,0.,4.8,0.,4.8
1979-03-02 12:14:14.970 ,1,0,,0,0.,4.8,0.,4.8,,0,0.,4.8,0.,4.8
1979-03-02 12:14:19.770 ,1,0,,0,0.,4.8,0.,4.8,,0,0.,4.8,0.,4.8
1979-03-02 12:14:24.570 ,1,0,,0,0.,4.8,0.,4.8,,0,0.,4.8,0.,4.8
1979-03-02 12:14:29.370 ,1,0,,0,8.,4.8,1.,4.8,,0,0.,4.8,0.,4.8
1979-03-02 12:14:34.170 ,1,0,,0,5.,4.8,0.,4.8,,0,0.,4.8,0.,4.8
1979-03-02 12:14:38.970 ,0,0,,0,7.,4.8,1.,4.8,,0,0.,4.8,0.,4.8
1979-03-02 12:14:43.770 ,0,0,,0,12.,4.8,1.,4.8,,0,0.,4.8,0.,4.8
1979-03-02 12:14:48.570 ,0,0,,0,12.,4.8,1.,4.8,,0,0.,4.8,1.,4.8
1979-03-02 12:14:53.370 ,0,0,,0,0.,4.8,0.,4.8,,0,0.,4.8,0.,4.8
1979-03-02 12:14:58.170 ,0,0,,0,0.,4.8,0.,4.8,,0,0.,4.8,0.,4.8
1979-03-02 12:15:02.970 ,0,0,,0,0.,4.8,0.,4.8,,0,0.,4.8,1.,4.8
1979-03-02 12:15:07.770 ,0,0,,0,0.,4.8,0.,4.8,,0,0.,4.8,1.,4.8
1979-03-02 12:15:12.570 ,0,0,,0,3.,4.8,1.,4.8,,0,0.,4.8,0.,4.8
1979-03-02 12:15:17.370 ,0,0,,0,16.,4.8,0.,4.8,,0,0.,4.8,0.,4.8
1979-03-02 12:15:22.170 ,0,0,,0,21.,4.8,0.,4.8,,0,0.,4.8,1.,4.8
1979-03-02 12:15:26.970 ,1,0,,0,17.,4.8,0.,4.8,,0,0.,4.8,0.,4.8
1979-03-02 12:15:31.770 ,1,0,,0,18.,4.8,1.,4.8,,0,0.,4.8,0.,4.8
1979-03-02 12:15:36.570 ,1,0,,0,6.,4.8,0.,4.8,,0,0.,4.8,0.,4.8
1979-03-02 12:15:41.370 ,1,0,,0,0.,4.8,0.,4.8,,0,0.,4.8,0.,4.8
1979-03-02 12:15:46.170 ,1,0,,0,0.,4.8,0.,4.8,,0,0.,4.8,0.,4.8
1979-03-02 12:15:50.970 ,2,0,,0,0.,4.8,0.,4.8,,0,0.,4.8,0.,4.8
1979-03-02 12:15:55.770 ,2,0,,0,0.,4.8,0.,4.8,,0,0.,4.8,0.,4.8
1979-03-02 12:16:00.570 ,2,0,,0,0.,4.8,0.,4.8,,0,0.,4.8,0.,4.8
1979-03-02 12:16:05.370 ,2,0,,0,6.,4.8,0.,4.8,,0,0.,4.8,1.,4.8
1979-03-02 12:16:10.170 ,2,0,,0,6.,4.8,0.,4.8,,0,0.,4.8,0.,4.8
1979-03-02 12:16:14.970 ,3,0,,0,5.,4.8,0.,4.8,,0,0.,4.8,0.,4.8
1979-03-02 12:16:19.770 ,3,0,,0,9.,4.8,0.,4.8,,0,0.,4.8,0.,4.8
1979-03-02 12:16:24.570 ,3,0,,0,8.,4.8,2.,4.8,,0,0.,4.8,0.,4.8
1979-03-02 12:16:29.370 ,3,0,,0,0.,4.8,0.,4.8,,0,0.,4.8,0.,4.8
1979-03-02 12:16:34.170 ,3,0,,0,0.,4.8,0.,4.8,,0,0.,4.8,0.,4.8
1979-03-02 12:16:38.970 ,4,0,,0,1.,4.8,0.,4.8,,0,0.,4.8,0.,4.8
1979-03-02 12:16:43.770 ,4,0,,0,0.,4.8,0.,4.8,,0,0.,4.8,0.,4.8
1979-03-02 12:16:48.570 ,4,0,,0,2.,4.8,0.,4.8,,0,0.,4.8,0.,4.8
1979-03-02 12:16:53.370 ,4,0,,0,15.,4.8,0.,4.8,,0,0.,4.8,0.,4.8
1979-03-02 12:16:58.170 ,4,0,,0,17.,4.8,0.,4.8,,0,0.,4.8,1.,4.8
1979-03-02 12:17:02.970 ,5,0,,0,10.,4.8,1.,4.8,,0,0.,4.8,0.,4.8
1979-03-02 12:17:07.770 ,5,0,,0,14.,4.8,0.,4.8,,0,0.,4.8,0.,4.8
1979-03-02 12:17:12.570 ,5,0,,0,18.,4.8,0.,4.8,,0,0.,4.8,0.,4.8
1979-03-02 12:17:17.370 ,5,0,,0,0.,4.8,0.,4.8,,0,0.,4.8,0.,4.8
1979-03-02 12:17:22.170 ,5,0,,0,1.,4.8,0.,4.8,,0,0.,4.8,0.,4.8
1979-03-02 12:17:26.970 ,6,0,,0,0.,4.8,0.,4.8,,0,0.,4.8,0.,4.8
1979-03-02 12:17:31.770 ,6,0,,0,0.,4.8,0.,4.8,,0,0.,4.8,0.,4.8
1979-03-02 12:17:36.570 ,6,0,,0,5.,4.8,0.,4.8,,0,0.,4.8,0.,4.8
1979-03-02 12:17:41.370 ,6,0,,0,21.,4.8,2.,4.8,,0,0.,4.8,1.,4.8
1979-03-02 12:17:46.170 ,6,0,,0,27.,4.8,1.,4.8,,0,0.,4.8,0.,4.8
1979-03-02 12:17:50.970 ,7,0,,0,20.,4.8,0.,4.8,,0,0.,4.8,0.,4.8
1979-03-02 12:17:55.770 ,7,0,,0,22.,4.8,0.,4.8,,0,0.,4.8,0.,4.8
1979-03-02 12:18:00.570 ,7,0,,0,9.,4.8,0.,4.8,,0,0.,4.8,0.,4.8
1979-03-02 12:18:05.370 ,7,0,,0,0.,4.8,0.,4.8,,0,0.,4.8,0.,4.8
1979-03-02 12:18:10.170 ,7,0,,0,0.,4.8,0.,4.8,,0,0.,4.8,0.,4.8
1979-03-02 12:18:14.970 ,7,0,,0,0.,4.8,0.,4.8,,0,0.,4.8,0.,4.8
1979-03-02 12:18:19.770 ,7,0,,0,0.,4.8,0.,4.8,,0,0.,4.8,0.,4.8
1979-03-02 12:18:24.570 ,7,0,,0,4.,4.8,0.,4.8,,0,0.,4.8,0.,4.8
1979-03-02 12:18:29.370 ,7,0,,0,5.,4.8,0.,4.8,,0,0.,4.8,0.,4.8
1979-03-02 12:18:34.170 ,7,0,,0,8.,4.8,0.,4.8,,0,0.,4.8,0.,4.8
1979-03-02 12:18:38.970 ,6,0,,0,11.,4.8,0.,4.8,,0,0.,4.8,0.,4.8
1979-03-02 12:18:43.770 ,6,0,,0,18.,4.8,1.,4.8,,0,0.,4.8,0.,4.8
1979-03-02 12:18:48.570 ,6,0,,0,23.,4.8,0.,4.8,,0,0.,4.8,0.,4.8
1979-03-02 12:18:53.370 ,6,0,,0,1.,4.8,0.,4.8,,0,0.,4.8,0.,4.8
1979-03-02 12:18:58.170 ,6,0,,0,0.,4.8,0.,4.8,,0,0.,4.8,0.,4.8
1979-03-02 12:19:02.970 ,5,0,,0,0.,4.8,0.,4.8,,0,0.,4.8,0.,4.8
1979-03-02 12:19:07.770 ,5,0,,0,0.,4.8,0.,4.8,,0,0.,4.8,0.,4.8
1979-03-02 12:19:12.570 ,5,0,,0,3.,4.8,0.,4.8,,0,0.,4.8,0.,4.8
1979-03-02 12:19:17.370 ,5,0,,0,19.,4.8,1.,4.8,,0,0.,4.8,0.,4.8
1979-03-02 12:19:22.170 ,5,0,,0,21.,4.8,2.,4.8,,0,0.,4.8,0.,4.8
1979-03-02 12:19:26.970 ,4,0,,0,30.,4.8,0.,4.8,,0,0.,4.8,0.,4.8
1979-03-02 12:19:31.770 ,4,0,,0,17.,4.8,1.,4.8,,0,0.,4.8,0.,4.8
1979-03-02 12:19:36.570 ,4,0,,0,14.,4.8,0.,4.8,,0,0.,4.8,0.,4.8
1979-03-02 12:19:41.370 ,4,0,,0,0.,4.8,0.,4.8,,0,0.,4.8,0.,4.8
1979-03-02 12:19:46.170 ,4,0,,0,0.,4.8,0.,4.8,,0,0.,4.8,0.,4.8
1979-03-02 12:19:50.970 ,3,0,,0,0.,4.8,0.,4.8,,0,0.,4.8,0.,4.8
1979-03-02 12:19:55.770 ,3,0,,0,0.,4.8,0.,4.8,,0,0.,4.8,0.,4.8
1979-03-02 12:20:00.570 ,3,0,,0,2.,4.8,0.,4.8,,0,0.,4.8,0.,4.8
1979-03-02 12:20:05.370 ,3,0,,0,15.,4.8,0.,4.8,,0,0.,4.8,1.,4.8
1979-03-02 12:20:10.170 ,3,0,,0,5.,4.8,0.,4.8,,0,0.,4.8,0.,4.8
1979-03-02 12:20:14.970 ,2,0,,0,10.,4.8,0.,4.8,,0,0.,4.8,0.,4.8
1979-03-02 12:20:19.770 ,2,0,,0,5.,4.8,0.,4.8,,0,0.,4.8,0.,4.8
1979-03-02 12:20:24.570 ,2,0,,0,6.,4.8,0.,4.8,,0,0.,4.8,0.,4.8
1979-03-02 12:20:29.370 ,2,0,,0,0.,4.8,0.,4.8,,0,0.,4.8,0.,4.8
1979-03-02 12:20:34.170 ,2,0,,0,0.,4.8,0.,4.8,,0,0.,4.8,0.,4.8
1979-03-02 12:20:38.970 ,1,0,,0,1.,4.8,0.,4.8,,0,0.,4.8,0.,4.8
1979-03-02 12:20:43.770 ,1,0,,0,0.,4.8,0.,4.8,,0,0.,4.8,0.,4.8
1979-03-02 12:20:48.570 ,1,0,,0,0.,4.8,0.,4.8,,0,0.,4.8,0.,4.8
1979-03-02 12:20:53.370 ,1,0,,0,14.,4.8,0.,4.8,,0,0.,4.8,0.,4.8
1979-03-02 12:20:58.170 ,1,0,,0,5.,4.8,0.,4.8,,0,0.,4.8,0.,4.8
1979-03-02 12:21:02.970 ,0,0,,0,5.,4.8,0.,4.8,,0,0.,4.8,0.,4.8
1979-03-02 12:21:07.770 ,0,0,,0,10.,4.8,1.,4.8,,0,0.,4.8,0.,4.8
1979-03-02 12:21:12.570 ,0,0,,0,14.,4.8,0.,4.8,,0,0.,4.8,0.,4.8
1979-03-02 12:21:17.370 ,0,0,,0,0.,4.8,0.,4.8,,0,0.,4.8,0.,4.8
1979-03-02 12:21:22.170 ,0,0,,0,0.,4.8,0.,4.8,,0,0.,4.8,0.,4.8
1979-03-02 12:21:26.970 ,0,0,,0,0.,4.8,0.,4.8,,0,0.,4.8,1.,4.8
1979-03-02 12:21:31.770 ,0,0,,0,0.,4.8,0.,4.8,,0,0.,4.8,0.,4.8
1979-03-02 12:21:36.570 ,0,0,,0,0.,4.8,0.,4.8,,0,0.,4.8,0.,4.8
1979-03-02 12:21:41.370 ,0,0,,0,13.,4.8,1.,4.8,,0,0.,4.8,0.,4.8
1979-03-02 12:21:46.170 ,0,0,,0,14.,4.8,1.,4.8,,0,0.,4.8,0.,4.8
1979-03-02 12:21:50.970 ,1,0,,0,23.,4.8,0.,4.8,,0,0.,4.8,0.,4.8
1979-03-02 12:21:55.770 ,1,0,,0,11.,4.8,0.,4.8,,0,0.,4.8,0.,4.8
1979-03-02 12:22:00.570 ,1,0,,0,9.,4.8,0.,4.8,,0,0.,4.8,0.,4.8
1979-03-02 12:22:05.370 ,1,0,,0,0.,4.8,0.,4.8,,0,0.,4.8,0.,4.8
1979-03-02 12:22:10.170 ,1,0,,0,0.,4.8,0.,4.8,,0,0.,4.8,0.,4.8
1979-03-02 12:22:14.970 ,2,0,,0,0.,4.8,0.,4.8,,0,0.,4.8,0.,4.8
1979-03-02 12:22:19.770 ,2,0,,0,0.,4.8,0.,4.8,,0,0.,4.8,1.,4.8
1979-03-02 12:22:24.570 ,2,0,,0,1.,4.8,0.,4.8,,0,0.,4.8,0.,4.8
1979-03-02 12:22:29.370 ,2,0,,0,5.,4.8,0.,4.8,,0,0.,4.8,0.,4.8
1979-03-02 12:22:34.170 ,2,0,,0,4.,4.8,0.,4.8,,0,0.,4.8,0.,4.8
1979-03-02 12:22:38.970 ,3,0,,0,5.,4.8,0.,4.8,,0,0.,4.8,0.,4.8
1979-03-02 12:22:43.770 ,3,0,,0,8.,4.8,0.,4.8,,0,0.,4.8,0.,4.8
1979-03-02 12:22:48.570 ,3,0,,0,6.,4.8,0.,4.8,,0,0.,4.8,0.,4.8
1979-03-02 12:22:53.370 ,3,0,,0,0.,4.8,0.,4.8,,0,0.,4.8,0.,4.8
1979-03-02 12:22:58.170 ,3,0,,0,0.,4.8,0.,4.8,,0,0.,4.8,1.,4.8
1979-03-02 12:23:02.970 ,4,0,,0,0.,4.8,0.,4.8,,0,0.,4.8,0.,4.8
1979-03-02 12:23:07.770 ,4,0,,0,0.,4.8,0.,4.8,,0,0.,4.8,1.,4.8
1979-03-02 12:23:12.570 ,4,0,,0,2.,4.8,0.,4.8,,0,0.,4.8,0.,4.8
1979-03-02 12:23:17.370 ,4,0,,0,15.,4.8,3.,4.8,,0,0.,4.8,1.,4.8
1979-03-02 12:23:22.170 ,4,0,,0,10.,4.8,0.,4.8,,0,0.,4.8,0.,4.8
1979-03-02 12:23:26.970 ,5,0,,0,18.,4.8,1.,4.8,,0,0.,4.8,0.,4.8
1979-03-02 12:23:31.770 ,5,0,,0,16.,4.8,0.,4.8,,0,0.,4.8,0.,4.8
1979-03-02 12:23:36.570 ,5,0,,0,10.,4.8,0.,4.8,,0,0.,4.8,0.,4.8
1979-03-02 12:23:41.370 ,5,0,,0,2.,4.8,0.,4.8,,0,0.,4.8,0.,4.8
1979-03-02 12:23:46.170 ,5,0,,0,0.,4.8,0.,4.8,,0,0.,4.8,2.,4.8
1979-03-02 12:23:50.970 ,6,0,,0,0.,4.8,0.,4.8,,0,0.,4.8,0.,4.8
1979-03-02 12:23:55.770 ,6,0,,0,0.,4.8,0.,4.8,,0,0.,4.8,0.,4.8
1979-03-02 12:24:00.570 ,6,0,,0,6.,4.8,1.,4.8,,0,0.,4.8,1.,4.8
1979-03-02 12:24:05.370 ,6,0,,0,28.,4.8,1.,4.8,,0,0.,4.8,1.,4.8
1979-03-02 12:24:10.170 ,6,0,,0,27.,4.8,1.,4.8,,0,0.,4.8,1.,4.8
1979-03-02 12:24:14.970 ,7,0,,0,23.,4.8,1.,4.8,,0,0.,4.8,0.,4.8
1979-03-02 12:24:19.770 ,7,0,,0,14.,4.8,1.,4.8,,0,0.,4.8,1.,4.8
1979-03-02 12:24:24.570 ,7,0,,0,9.,4.8,0.,4.8,,0,0.,4.8,0.,4.8
1979-03-02 12:24:29.370 ,7,0,,0,0.,4.8,0.,4.8,,0,0.,4.8,0.,4.8
1979-03-02 12:24:34.170 ,7,0,,0,0.,4.8,0.,4.8,,0,0.,4.8,0.,4.8
1979-03-02 12:24:38.970 ,7,0,,0,0.,4.8,0.,4.8,,0,0.,4.8,0.,4.8
1979-03-02 12:24:43.770 ,7,0,,0,0.,4.8,0.,4.8,,0,0.,4.8,0.,4.8
1979-03-02 12:24:48.570 ,7,0,,0,3.,4.8,0.,4.8,,0,0.,4.8,0.,4.8
1979-03-02 12:24:53.370 ,7,0,,0,12.,4.8,0.,4.8,,0,0.,4.8,0.,4.8
1979-03-02 12:24:58.170 ,7,0,,0,9.,4.8,0.,4.8,,0,0.,4.8,0.,4.8
1979-03-02 12:25:02.970 ,6,0,,0,14.,4.8,0.,4.8,,0,0.,4.8,0.,4.8
1979-03-02 12:25:07.770 ,6,0,,0,17.,4.8,1.,4.8,,0,0.,4.8,0.,4.8
1979-03-02 12:25:12.570 ,6,0,,0,10.,4.8,0.,4.8,,0,0.,4.8,0.,4.8
1979-03-02 12:25:17.370 ,6,0,,0,0.,4.8,0.,4.8,,0,0.,4.8,0.,4.8
1979-03-02 12:25:22.170 ,6,0,,0,0.,4.8,0.,4.8,,0,0.,4.8,0.,4.8
1979-03-02 12:25:26.970 ,5,0,,0,0.,4.8,0.,4.8,,0,0.,4.8,1.,4.8
1979-03-02 12:25:31.770 ,5,0,,0,0.,4.8,0.,4.8,,0,0.,4.8,0.,4.8
1979-03-02 12:25:36.570 ,5,0,,0,3.,4.8,1.,4.8,,0,0.,4.8,0.,4.8
1979-03-02 12:25:41.370 ,5,0,,0,14.,4.8,1.,4.8,,0,0.,4.8,0.,4.8
1979-03-02 12:25:46.170 ,5,0,,0,16.,4.8,2.,4.8,,0,0.,4.8,0.,4.8
1979-03-02 12:25:50.970 ,4,0,,0,17.,4.8,0.,4.8,,0,0.,4.8,0.,4.8
1979-03-02 12:25:55.770 ,4,0,,0,10.,4.8,0.,4.8,,0,0.,4.8,0.,4.8
1979-03-02 12:26:00.570 ,4,0,,0,10.,4.8,1.,4.8,,0,0.,4.8,1.,4.8
1979-03-02 12:26:05.370 ,4,0,,0,0.,4.8,0.,4.8,,0,0.,4.8,0.,4.8
1979-03-02 12:26:10.170 ,4,0,,0,0.,4.8,0.,4.8,,0,0.,4.8,0.,4.8
1979-03-02 12:26:14.970 ,3,0,,0,1.,4.8,0.,4.8,,0,0.,4.8,1.,4.8
1979-03-02 12:26:19.770 ,3,0,,0,0.,4.8,0.,4.8,,0,0.,4.8,0.,4.8
1979-03-02 12:26:24.570 ,3,0,,0,2.,4.8,0.,4.8,,0,0.,4.8,1.,4.8
1979-03-02 12:26:29.370 ,3,0,,0,5.,4.8,0.,4.8,,0,0.,4.8,0.,4.8
1979-03-02 12:26:34.170 ,3,0,,0,8.,4.8,1.,4.8,,0,0.,4.8,0.,4.8
1979-03-02 12:26:38.970 ,2,0,,0,8.,4.8,0.,4.8,,0,0.,4.8,1.,4.8
1979-03-02 12:26:43.770 ,2,0,,0,5.,4.8,1.,4.8,,0,0.,4.8,0.,4.8
1979-03-02 12:26:48.570 ,2,0,,0,2.,4.8,0.,4.8,,0,0.,4.8,1.,4.8
1979-03-02 12:26:53.370 ,2,0,,0,0.,4.8,0.,4.8,,0,0.,4.8,0.,4.8
1979-03-02 12:26:58.170 ,2,0,,0,0.,4.8,0.,4.8,,0,0.,4.8,0.,4.8
1979-03-02 12:27:02.970 ,1,0,,0,0.,4.8,0.,4.8,,0,0.,4.8,1.,4.8
1979-03-02 12:27:07.770 ,1,0,,0,0.,4.8,0.,4.8,,0,0.,4.8,0.,4.8
1979-03-02 12:27:12.570 ,1,0,,0,1.,4.8,0.,4.8,,0,0.,4.8,0.,4.8
1979-03-02 12:27:17.370 ,1,0,,0,5.,4.8,0.,4.8,,0,0.,4.8,0.,4.8
1979-03-02 12:27:22.170 ,1,0,,0,8.,4.8,1.,4.8,,0,0.,4.8,2.,4.8
1979-03-02 12:27:26.970 ,0,0,,0,11.,4.8,0.,4.8,,0,0.,4.8,1.,4.8
1979-03-02 12:27:31.770 ,0,0,,0,11.,4.8,0.,4.8,,0,0.,4.8,1.,4.8
1979-03-02 12:27:36.570 ,0,0,,0,14.,4.8,0.,4.8,,0,0.,4.8,0.,4.8
1979-03-02 12:27:41.370 ,0,0,,0,0.,4.8,0.,4.8,,0,0.,4.8,0.,4.8
1979-03-02 12:27:46.170 ,0,0,,0,0.,4.8,0.,4.8,,0,0.,4.8,0.,4.8
1979-03-02 12:27:50.970 ,0,0,,0,0.,4.8,0.,4.8,,0,0.,4.8,1.,4.8
1979-03-02 12:27:55.770 ,0,0,,0,0.,4.8,0.,4.8,,0,0.,4.8,0.,4.8
1979-03-02 12:28:00.570 ,0,0,,0,3.,4.8,0.,4.8,,0,0.,4.8,0.,4.8
1979-03-02 12:28:05.370 ,0,0,,0,27.,4.8,2.,4.8,,0,0.,4.8,0.,4.8
1979-03-02 12:28:10.170 ,0,0,,0,25.,4.8,0.,4.8,,0,0.,4.8,0.,4.8
1979-03-02 12:28:14.970 ,1,0,,0,24.,4.8,1.,4.8,,0,0.,4.8,0.,4.8
1979-03-02 12:28:19.770 ,1,0,,0,21.,4.8,0.,4.8,,0,0.,4.8,0.,4.8
1979-03-02 12:28:24.570 ,1,0,,0,4.,4.8,1.,4.8,,0,0.,4.8,0.,4.8
1979-03-02 12:28:29.370 ,1,0,,0,0.,4.8,0.,4.8,,0,0.,4.8,0.,4.8
1979-03-02 12:28:34.170 ,1,0,,0,0.,4.8,0.,4.8,,0,0.,4.8,0.,4.8
1979-03-02 12:28:38.970 ,2,0,,0,0.,4.8,0.,4.8,,0,0.,4.8,0.,4.8
1979-03-02 12:28:43.770 ,2,0,,0,0.,4.8,0.,4.8,,0,0.,4.8,0.,4.8
1979-03-02 12:28:48.570 ,2,0,,0,1.,4.8,0.,4.8,,0,0.,4.8,0.,4.8
1979-03-02 12:28:53.370 ,2,0,,0,7.,4.8,0.,4.8,,0,0.,4.8,0.,4.8
1979-03-02 12:28:58.170 ,2,0,,0,4.,4.8,0.,4.8,,0,0.,4.8,0.,4.8
1979-03-02 12:29:02.970 ,3,0,,0,3.,4.8,0.,4.8,,0,0.,4.8,0.,4.8
1979-03-02 12:29:07.770 ,3,0,,0,8.,4.8,0.,4.8,,0,0.,4.8,0.,4.8
1979-03-02 12:29:12.570 ,3,0,,0,14.,4.8,0.,4.8,,0,0.,4.8,0.,4.8
1979-03-02 12:29:17.370 ,3,0,,0,0.,4.8,0.,4.8,,0,0.,4.8,0.,4.8
1979-03-02 12:29:22.170 ,3,0,,0,0.,4.8,0.,4.8,,0,0.,4.8,0.,4.8
1979-03-02 12:29:26.970 ,4,0,,0,0.,4.8,0.,4.8,,0,0.,4.8,0.,4.8
1979-03-02 12:29:31.770 ,4,0,,0,0.,4.8,0.,4.8,,0,0.,4.8,0.,4.8
1979-03-02 12:29:36.570 ,4,0,,0,4.,4.8,0.,4.8,,0,0.,4.8,0.,4.8
1979-03-02 12:29:41.370 ,4,0,,0,15.,4.8,1.,4.8,,0,0.,4.8,0.,4.8
1979-03-02 12:29:46.170 ,4,0,,0,16.,4.8,3.,4.8,,0,0.,4.8,1.,4.8
1979-03-02 12:29:50.970 ,5,0,,0,15.,4.8,0.,4.8,,0,0.,4.8,0.,4.8
1979-03-02 12:29:55.770 ,5,0,,0,19.,4.8,0.,4.8,,0,0.,4.8,0.,4.8
1979-03-02 12:30:00.570 ,5,0,,0,19.,4.8,1.,4.8,,0,0.,4.8,0.,4.8
1979-03-02 12:30:05.370 ,5,0,,0,1.,4.8,0.,4.8,,0,0.,4.8,0.,4.8
1979-03-02 12:30:10.170 ,5,0,,0,0.,4.8,0.,4.8,,0,0.,4.8,0.,4.8
1979-03-02 12:30:14.970 ,6,0,,0,0.,4.8,0.,4.8,,0,0.,4.8,1.,4.8
1979-03-02 12:30:19.770 ,6,0,,0,0.,4.8,0.,4.8,,0,0.,4.8,0.,4.8
1979-03-02 12:30:24.570 ,6,0,,0,5.,4.8,0.,4.8,,0,0.,4.8,0.,4.8
1979-03-02 12:30:29.370 ,6,0,,0,14.,4.8,0.,4.8,,0,0.,4.8,0.,4.8
1979-03-02 12:30:34.170 ,6,0,,0,21.,4.8,1.,4.8,,0,0.,4.8,0.,4.8
1979-03-02 12:30:38.970 ,7,0,,0,27.,4.8,1.,4.8,,0,0.,4.8,0.,4.8